User: anonymous   Login
Location: Unspecified
(51.9356°N, 0.0000°E)
Time: 02:51:40
(UTC+00:00)
Language:

COSMOS 2503 - Orbit

View from above orbital plane
View from above orbital plane
View from above satellite
View from above satellite

Ground track
Ground track

The orbit is defined by the following mean orbital elements,

1 40420U          26088.15992461 +.00000000 +00000-0 +16305-3 0 00002
2 40420  97.8400 143.5237 0016769 158.7282 201.4645 15.06350411    05
Epoch (UTC): 29 March 2026 03:50:17
Eccentricity: 0.0016769
inclination: 97.8400°
perigee height: 536 km
apogee height: 559 km
right ascension of ascending node: 143.5237°
argument of perigee: 158.7282°
revolutions per day: 15.06350411
mean anomaly at epoch: 201.4645°

The dashed part of the orbit path shows where the satellite is in the earth's shadow,  

DLR